Location: Unspecified
(0.0000°N, 0.0000°E)
Time: 22:17:04
(UTC+00:00)

N. Korean satellite - Visible Passes

Search period start: 26 September 2022 00:00
Search period end: 06 October 2022 00:00
Orbit: 427 x 468 km, 97.3° (Epoch: 25 September)

Date Brightness Start Highest point End Pass type
(mag) Time Alt. Az. Time Alt. Az. Time Alt. Az.
26 Sep 6.2 04:56:38 10° N 04:59:53 75° WNW 05:03:10 10° SSW visible
27 Sep 9.0 04:21:47 10° NE 04:24:22 22° ESE 04:26:57 10° SSE visible
28 Sep 7.2 05:18:25 10° NNW 05:21:15 28° W 05:24:08 10° SW visible
29 Sep 7.1 04:42:28 10° NNE 04:45:40 54° E 04:48:53 10° S visible
30 Sep 9.8 04:08:35 10° ENE 04:10:04 13° ESE 04:11:33 10° SE visible
01 Oct 6.4 05:03:39 10° N 05:06:51 54° W 05:10:05 10° SSW visible
02 Oct 8.5 04:28:17 10° NE 04:31:10 28° ESE 04:34:03 10° SSE visible
03 Oct 7.6 05:25:18 10° NNW 05:27:54 22° W 05:30:32 10° SW visible
04 Oct 6.5 04:48:52 10° NNE 04:52:09 74° ESE 04:55:28 10° S visible
05 Oct 9.5 04:14:16 10° ENE 04:16:23 16° ESE 04:18:31 10° SE visible
